• In Hungary
  • List of Countries
  • For 7 days
  • Water Temperature
  • Satellite Maps
  • Weather Map
  • News
  • Weather Widgets
  • user-avatar
    Login

    Hourly Weather Elovka

    Today, 19 June, Tuesday

    Time Temperature Precipitation Wind Pressure Humidity
    00:00 +14°C° 0 mm 1 mps 714 mmHg 72%
    01:00 +14°C° 0 mm 1 mps 714 mmHg 73%
    02:00 +13°C° 0 mm 1 mps 714 mmHg 73%
    03:00 +13°C° 0 mm 1 mps 714 mmHg 73%
    04:00 +13°C° 0 mm 1 mps 714 mmHg 73%
    05:00 +15°C° 0 mm 0 mps 714 mmHg 64%
    06:00 +18°C° 0 mm 0 mps 715 mmHg 55%
    07:00 +22°C° 0 mm 0 mps 715 mmHg 45%
    08:00 +26°C° 0 mm 1 mps 715 mmHg 41%
    09:00 +27°C° 0 mm 1 mps 715 mmHg 36%
    10:00 +29°C° 0 mm 1 mps 714 mmHg 32%
    11:00 +30°C° 0 mm 1 mps 714 mmHg 30%
    12:00 +31°C° 0 mm 1 mps 714 mmHg 28%
    13:00 +31°C° 0 mm 2 mps 713 mmHg 26%
    14:00 +31°C° 0 mm 2 mps 713 mmHg 26%
    15:00 +31°C° 0 mm 2 mps 713 mmHg 26%
    16:00 +31°C° 0 mm 2 mps 712 mmHg 26%
    17:00 +29°C° 0 mm 2 mps 712 mmHg 32%
    18:00 +27°C° 0 mm 1 mps 712 mmHg 38%
    19:00 +25°C° 0 mm 1 mps 711 mmHg 44%
    20:00 +23°C° 0 mm 1 mps 711 mmHg 47%
    21:00 +21°C° 0 mm 1 mps 711 mmHg 51%
    22:00 +19°C° 0 mm 1 mps 711 mmHg 55%
    23:00 +19°C° 0 mm 1 mps 711 mmHg 55%

    Tomorrow, 20 June, Wednesday

    Time Temperature Precipitation Wind Pressure Humidity
    00:00 +18°C° 0 mm 1 mps 711 mmHg 56%
    01:00 +18°C° 0 mm 1 mps 711 mmHg 56%
    02:00 +17°C° 0 mm 2 mps 710 mmHg 57%
    03:00 +17°C° 0 mm 2 mps 710 mmHg 57%
    04:00 +16°C° 0 mm 2 mps 710 mmHg 58%
    05:00 +19°C° 0 mm 2 mps 710 mmHg 53%
    06:00 +21°C° 0 mm 2 mps 710 mmHg 48%
    07:00 +24°C° 0 mm 2 mps 710 mmHg 42%
    08:00 +26°C° 0 mm 2 mps 710 mmHg 38%
    09:00 +28°C° 0 mm 2 mps 710 mmHg 33%
    10:00 +30°C° 0 mm 3 mps 709 mmHg 28%
    11:00 +31°C° 0 mm 2 mps 709 mmHg 26%
    12:00 +32°C° 0 mm 2 mps 709 mmHg 24%
    13:00 +34°C° 0 mm 2 mps 709 mmHg 22%
    14:00 +32°C° 0 mm 2 mps 708 mmHg 25%
    15:00 +31°C° 0 mm 1 mps 708 mmHg 28%
    16:00 +30°C° 0 mm 1 mps 708 mmHg 32%
    17:00 +28°C° 0.1 mm 1 mps 708 mmHg 38%
    18:00 +26°C° 0.1 mm 1 mps 707 mmHg 45%
    19:00 +25°C° 0.1 mm 2 mps 707 mmHg 51%
    20:00 +24°C° 0.1 mm 1 mps 707 mmHg 54%
    21:00 +23°C° 0.1 mm 1 mps 708 mmHg 56%
    22:00 +21°C° 0.1 mm 1 mps 708 mmHg 58%
    23:00 +21°C° 0.1 mm 1 mps 708 mmHg 61%

    Day after tomorrow, 21 June, Thursday

    Time Temperature Precipitation Wind Pressure Humidity
    00:00 +20°C° 0.1 mm 1 mps 708 mmHg 64%
    01:00 +19°C° 0.1 mm 1 mps 708 mmHg 67%
    02:00 +19°C° 0.2 mm 1 mps 708 mmHg 70%
    03:00 +18°C° 0.2 mm 1 mps 708 mmHg 73%
    04:00 +18°C° 0.2 mm 1 mps 708 mmHg 76%
    05:00 +18°C° 0.7 mm 1 mps 708 mmHg 77%
    06:00 +19°C° 0.7 mm 1 mps 708 mmHg 79%
    07:00 +19°C° 0.7 mm 1 mps 709 mmHg 80%
    08:00 +19°C° 1 mm 1 mps 709 mmHg 83%
    09:00 +19°C° 1 mm 1 mps 709 mmHg 85%
    10:00 +19°C° 1 mm 1 mps 709 mmHg 88%
    11:00 +19°C° 0.3 mm 2 mps 709 mmHg 86%
    12:00 +19°C° 0.3 mm 2 mps 709 mmHg 84%
    13:00 +20°C° 0.3 mm 2 mps 709 mmHg 82%
    14:00 +21°C° 0 mm 2 mps 709 mmHg 74%
    15:00 +23°C° 0 mm 2 mps 709 mmHg 65%
    16:00 +25°C° 0 mm 2 mps 709 mmHg 57%
    17:00 +24°C° 0 mm 2 mps 709 mmHg 58%
    18:00 +23°C° 0 mm 2 mps 709 mmHg 58%
    19:00 +23°C° 0 mm 2 mps 709 mmHg 59%
    20:00 +21°C° 0 mm 1 mps 709 mmHg 66%
    21:00 +19°C° 0 mm 1 mps 709 mmHg 74%
    22:00 +16°C° 0 mm 1 mps 709 mmHg 81%
    23:00 +16°C° 0 mm 1 mps 709 mmHg 82%

    22 June, Friday

    Time Temperature Precipitation Wind Pressure Humidity
    00:00 +15°C° 0 mm 1 mps 709 mmHg 83%
    01:00 +15°C° 0 mm 1 mps 709 mmHg 85%
    02:00 +15°C° 0 mm 1 mps 709 mmHg 86%
    03:00 +15°C° 0 mm 1 mps 709 mmHg 88%
    04:00 +15°C° 0 mm 1 mps 709 mmHg 89%
    05:00 +18°C° 0 mm 1 mps 710 mmHg 80%
    06:00 +19°C° 0 mm 2 mps 710 mmHg 71%
    07:00 +23°C° 0 mm 2 mps 710 mmHg 62%
    08:00 +24°C° 0 mm 2 mps 711 mmHg 59%
    09:00 +24°C° 0 mm 3 mps 711 mmHg 56%
    10:00 +25°C° 0 mm 3 mps 711 mmHg 54%
    11:00 +26°C° 0 mm 3 mps 711 mmHg 52%
    12:00 +26°C° 0 mm 4 mps 710 mmHg 50%
    13:00 +27°C° 0 mm 4 mps 710 mmHg 49%
    14:00 +27°C° 0 mm 4 mps 710 mmHg 50%
    15:00 +27°C° 0 mm 4 mps 710 mmHg 51%
    16:00 +27°C° 0 mm 4 mps 710 mmHg 52%
    17:00 +25°C° 0.1 mm 3 mps 710 mmHg 59%
    18:00 +22°C° 0.1 mm 3 mps 710 mmHg 67%
    19:00 +21°C° 0.1 mm 2 mps 710 mmHg 75%
    20:00 +20°C° 0.1 mm 2 mps 710 mmHg 81%
    21:00 +18°C° 0.1 mm 2 mps 710 mmHg 86%
    22:00 +17°C° 0.1 mm 2 mps 710 mmHg 92%
    23:00 +18°C° 0.1 mm 1 mps 710 mmHg 93%

    23 June, Saturday

    Time Temperature Precipitation Wind Pressure Humidity
    00:00 +18°C° 0.1 mm 1 mps 710 mmHg 93%
    01:00 +16°C° 0.1 mm 1 mps 710 mmHg 94%
    02:00 +16°C° 0 mm 1 mps 710 mmHg 94%
    03:00 +16°C° 0 mm 1 mps 710 mmHg 94%
    04:00 +15°C° 0 mm 1 mps 710 mmHg 95%
    05:00 +18°C° 0 mm 1 mps 710 mmHg 86%
    06:00 +19°C° 0 mm 2 mps 710 mmHg 77%
    07:00 +21°C° 0 mm 2 mps 710 mmHg 69%
    08:00 +24°C° 0 mm 2 mps 710 mmHg 60%
    09:00 +25°C° 0 mm 3 mps 710 mmHg 51%
    10:00 +27°C° 0 mm 4 mps 710 mmHg 42%
    11:00 +27°C° 0 mm 4 mps 710 mmHg 39%
    12:00 +28°C° 0 mm 4 mps 709 mmHg 36%
    13:00 +28°C° 0 mm 4 mps 709 mmHg 34%
    14:00 +28°C° 0 mm 4 mps 709 mmHg 34%
    15:00 +28°C° 0 mm 4 mps 709 mmHg 35%
    16:00 +28°C° 0 mm 4 mps 709 mmHg 36%
    17:00 +26°C° 0 mm 4 mps 709 mmHg 41%
    18:00 +25°C° 0 mm 3 mps 709 mmHg 47%
    19:00 +23°C° 0 mm 2 mps 709 mmHg 53%
    20:00 +20°C° 0 mm 2 mps 709 mmHg 61%
    21:00 +18°C° 0 mm 2 mps 709 mmHg 69%
    22:00 +16°C° 0 mm 1 mps 709 mmHg 77%
    23:00 +16°C° 0 mm 1 mps 709 mmHg 79%

    24 June, Sunday

    Time Temperature Precipitation Wind Pressure Humidity
    00:00 +15°C° 0 mm 1 mps 709 mmHg 81%
    01:00 +15°C° 0 mm 1 mps 709 mmHg 83%
    02:00 +14°C° 0 mm 1 mps 709 mmHg 83%
    03:00 +14°C° 0 mm 1 mps 709 mmHg 84%
    04:00 +14°C° 0 mm 1 mps 709 mmHg 84%
    05:00 +16°C° 0 mm 1 mps 709 mmHg 74%
    06:00 +19°C° 0 mm 2 mps 710 mmHg 63%
    07:00 +21°C° 0 mm 2 mps 710 mmHg 52%
    08:00 +24°C° 0 mm 2 mps 710 mmHg 47%
    09:00 +25°C° 0 mm 3 mps 710 mmHg 41%
    10:00 +27°C° 0 mm 3 mps 710 mmHg 36%
    11:00 +27°C° 0 mm 3 mps 710 mmHg 34%
    12:00 +28°C° 0 mm 4 mps 710 mmHg 32%
    13:00 +29°C° 0 mm 4 mps 709 mmHg 31%
    14:00 +29°C° 0 mm 4 mps 709 mmHg 31%
    15:00 +28°C° 0 mm 4 mps 709 mmHg 30%
    16:00 +28°C° 0 mm 3 mps 709 mmHg 30%
    17:00 +27°C° 0 mm 3 mps 709 mmHg 36%
    18:00 +26°C° 0 mm 2 mps 710 mmHg 43%
    19:00 +24°C° 0 mm 2 mps 710 mmHg 49%
    20:00 +22°C° 0 mm 1 mps 710 mmHg 56%
    21:00 +20°C° 0 mm 1 mps 710 mmHg 63%
    22:00 +16°C° 0 mm 1 mps 710 mmHg 70%
    23:00 +16°C° 0 mm 1 mps 710 mmHg 70%
    Show more